This demonstration page uses our WeatherBlox Daily Observations layout. Learn more.

Left ArrowRight Arrow

34.74481, -87.66753

Hourly Observations for July 25, 2022

Temp ( °F °C ) Dew Point ( °F °C ) Humidity (%) Winds ( mph kmh ) Pressure ( in mb ) Visibility ( mi km ) Precip ( " mm )
12:53 am 00:53 Clear 80 26.7 73 22.8 79 79 VRB 5 7 30.02 1017 10 16 0.00 0.00
1:53 am 01:53 Clear 79 26.1 72 22.2 79 79 S 5 7 30.00 1016 10 16 0.00 0.00
2:53 am 02:53 Clear 79 26.1 72 22.2 79 79 Calm 30.01 1016 10 16 0.00 0.00
3:53 am 03:53 Clear 77 25 73 22.8 88 88 WSW 6 9 30.01 1016 10 16 0.00 0.00
4:53 am 04:53 Clear 78 25.6 74 23.3 87 87 SSW 5 7 30.01 1016 10 16 0.00 0.00
5:53 am 05:53 Clear 75 23.9 73 22.8 94 94 SSE 3 6 30.03 1017 10 16 0.00 0.00
6:53 am 06:53 Sunny 78 25.6 74 23.3 87 87 Calm 30.04 1017 10 16 0.00 0.00
7:53 am 07:53 Sunny 80 26.7 74 23.3 82 82 WSW 6 9 30.07 1018 10 16 0.00 0.00
8:53 am 08:53 Sunny 83 28.3 74 23.3 74 74 SW 6 9 30.08 1019 10 16 0.00 0.00
9:53 am 09:53 Sunny 86 30 75 23.9 70 70 WSW 7 11 30.07 1018 10 16 0.00 0.00
10:53 am 10:53 Sunny 88 31.1 75 23.9 66 66 WSW 9 15 30.08 1019 10 16 0.00 0.00
11:53 am 11:53 Mostly Cloudy 91 32.8 74 23.3 57 57 undefined N/A 30.07 1018 10 16 0.00 0.00
12:53 pm 12:53 Mostly Sunny 92 33.3 74 23.3 56 56 VRB 6 9 30.04 1017 10 16 0.00 0.00
1:53 pm 13:53 Mostly Sunny 94 34.4 71 21.7 48 48 WSW 9 15 30.01 1016 10 16 0.00 0.00
2:53 pm 14:53 Sunny 94 34.4 73 22.8 51 51 undefined N/A 29.99 1016 10 16 0.00 0.00
3:53 pm 15:53 Mostly Sunny 93 33.9 72 22.2 50 50 SSW 7 11 29.98 1015 10 16 0.00 0.00
4:53 pm 16:53 Partly Cloudy 88 31.1 74 23.3 63 63 NNW 5 7 29.99 1016 10 16 0.00 0.00
5:53 pm 17:53 Mostly Cloudy 88 31.1 72 22.2 59 59 SE 3 6 29.98 1015 10 16 0.00 0.00
6:53 pm 18:53 Sunny 88 31.1 71 21.7 57 57 S 5 7 29.98 1015 10 16 0.00 0.00
7:53 pm 19:53 Sunny 87 30.6 74 23.3 65 65 SSW 3 6 29.99 1016 10 16 0.00 0.00
8:53 pm 20:53 Mostly Clear 85 29.4 75 23.9 72 72 S 7 11 30.03 1017 10 16 0.00 0.00
9:53 pm 21:53 Clear 83 28.3 74 23.3 74 74 S 6 9 30.04 1017 10 16 0.00 0.00
10:53 pm 22:53 Clear 81 27.2 74 23.3 79 79 S 5 7 30.04 1017 10 16 0.00 0.00
11:53 pm 23:53 Clear 81 27.2 74 23.3 79 79 SSW 6 9 30.03 1017 10 16 0.00 0.00

Powered by AerisWeather